This is the latest recevied weather packets stored in our database for station/object KD7JB. If no packets are shown the sender has not sent any weather packets the latest 10 day(s).
| Time | Temp. | Humidity | Pressure | Rain* | Wind** | Luminosity | Snow |
|---|---|---|---|---|---|---|---|
| 1777152288 | 7.78° C | 37% | 1170.4 hPa | 0 mm | - | 672 W/m² | - |
| 1777151983 | 6.67° C | 34% | 1170.5 hPa | 0 mm | - | 679 W/m² | - |
| 1777151678 | 7.22° C | 34% | 1170.8 hPa | 0 mm | - | 684 W/m² | - |
| 1777151377 | 6.67° C | 34% | 1170.7 hPa | 0 mm | - | 687 W/m² | - |
| 1777151072 | 7.22° C | 33% | 1170.8 hPa | 0 mm | - | 695 W/m² | - |
| 1777150772 | 7.22° C | 34% | 1170.5 hPa | 0 mm | - | 700 W/m² | - |
| 1777150467 | 6.67° C | 34% | 1170.9 hPa | 0 mm | - | 702 W/m² | - |
| 1777150163 | 6.67° C | 35% | 1170.7 hPa | 0 mm | - | 707 W/m² | - |
| 1777149861 | 6.67° C | 34% | 1170.9 hPa | 0 mm | - | 711 W/m² | - |
| 1777149557 | 6.67° C | 33% | 1170.9 hPa | 0 mm | - | 713 W/m² | - |
| 1777149254 | 6.11° C | 33% | 1170.9 hPa | 0 mm | - | 717 W/m² | - |
| 1777148948 | 6.67° C | 36% | 1170.9 hPa | 0 mm | - | 720 W/m² | - |
| 1777148645 | 6.67° C | 35% | 1170.9 hPa | 0 mm | - | 723 W/m² | - |
| 1777148340 | 6.67° C | 33% | 1171 hPa | 0 mm | - | 724 W/m² | - |
| 1777148036 | 6.67° C | 34% | 1171 hPa | 0 mm | - | 726 W/m² | - |
| 1777147733 | 6.67° C | 33% | 1171 hPa | 0 mm | - | 729 W/m² | - |
| 1777147429 | 6.11° C | 32% | 1171 hPa | 0 mm | - | 730 W/m² | - |
| 1777147124 | 6.67° C | 34% | 1171.1 hPa | 0 mm | - | 730 W/m² | - |
| 1777146820 | 6.11° C | 35% | 1171.2 hPa | 0 mm | - | 733 W/m² | - |
| 1777146516 | 6.11° C | 35% | 1171 hPa | 0 mm | - | 733 W/m² | - |
| 1777146213 | 6.11° C | 33% | 1171.2 hPa | 0 mm | - | 723 W/m² | - |
| 1777145909 | 6.11° C | 33% | 1171.2 hPa | 0 mm | - | 731 W/m² | - |
| 1777145606 | 6.11° C | 33% | 1171.3 hPa | 0 mm | - | 733 W/m² | - |
| 1777145306 | 6.11° C | 34% | 1171.2 hPa | 0 mm | - | 732 W/m² | - |
| 1777145001 | 5.56° C | 33% | 1171.2 hPa | 0 mm | - | 731 W/m² | - |
* Rain latest hour (hover to see other rain measurements)
** Current wind speed in m/s (hover to see current wind gust speed)